Location: Chevoux
(46.3801°N, 4.9476°E)
Time: 22:57:53
(UTC+00:00)

SeaSat 1 - Pass Details

Date: 28 January 2021
Orbit: 744 x 747 km, 108.0° (Epoch: 04 March)

Event Time Altitude Azimuth Distance (km) Brightness Sun altitude
Rises 17:28:08 0° 20° (NNE) 3,201 5.4 -8.7°
Reaches altitude 10° 17:30:36 10° 11° (N) 2,274 4.7 -9.1°
Maximum altitude 17:34:54 31° 310° (NW) 1,294 4.1 -9.9°
Drops below altitude 10° 17:39:12 10° 250° (WSW) 2,264 6.5 -10.6°
Sets 17:41:40 0° 240° (WSW) 3,184 7.4 -11.0°
